Zurück zum Katalog

TITAN 3C TRANSTAGE DEB

AktivHEO
NORAD 34165·DEBRIS·🇺🇸 United States

Gestartet Dec 21, 1965 von Cape Canaveral Space Force Station

Loading…

Nächste Überflüge (nächste 24 Stunden)

TLE

AktuellSource: Space-Track

Epoche: Sep 13, 2026, 19:02 UTC

1 34165U 65108CY  26256.79371373  .00003942  00000-0  91337-2 0  9993
2 34165  26.6667  85.2583 6382499 116.4252 320.9937  3.34698609160454

Verfolge TITAN 3C TRANSTAGE DEB in Echtzeit mit AllMySat

Download on the App Store